Location: Saint-Restitut
(44.3351°N, 4.7915°E)
Time: 15:05:26
(UTC+00:00)

CSL-04 Debris - Pass Details

Date: 22 February 2024
Orbit: 824 x 843 km, 98.8° (Epoch: 21 April)

Event Time Altitude Azimuth Distance (km) Brightness Sun altitude
Exits shadow 20:40:46 22° 242° (WSW) 1,756 6.1 -36.2°
Maximum altitude 20:42:17 24° 266° (W) 1,639 6.1 -36.4°
Drops below altitude 10° 20:46:37 10° 320° (NW) 2,435 7.2 -37.1°
Sets 20:49:26 0° 334° (NNW) 3,372 7.9 -37.6°
